This is the latest recevied weather packets stored in our database for station/object IQ0OG-3. If no packets are shown the sender has not sent any weather packets the latest 10 day(s).
| Time | Temp. | Humidity | Pressure | Rain* | Wind** | Luminosity | Snow |
|---|---|---|---|---|---|---|---|
| 1778038806 | 15° C | 82% | 1009.9 hPa | 0 mm | - | - | - |
| 1778037606 | 15° C | 80% | 1009.8 hPa | 0 mm | - | - | - |
| 1778025606 | 14.44° C | 93% | 1011.5 hPa | 0 mm | - | - | - |
| 1778025005 | 14.44° C | 93% | 1011.6 hPa | 0 mm | - | - | - |
| 1778023805 | 15° C | 92% | 1011.6 hPa | 0 mm | - | - | - |
| 1778016605 | 16.67° C | 73% | 1012.7 hPa | 0 mm | - | - | - |
| 1778000404 | 18.33° C | 89% | 1012 hPa | 0 mm | - | - | - |
| 1777999805 | 18.89° C | 88% | 1011.8 hPa | 0 mm | - | - | - |
| 1777995604 | 18.89° C | 88% | 1012.1 hPa | 0 mm | - | - | - |
| 1777991404 | 18.89° C | 88% | 1011.7 hPa | 0 mm | - | - | - |
| 1777990803 | 18.89° C | 87% | 1012 hPa | 0 mm | - | - | - |
| 1777989005 | 19.44° C | 84% | 1012 hPa | 0 mm | - | - | - |
| 1777987804 | 20° C | 81% | 1012 hPa | 0 mm | - | - | - |
| 1777987204 | 20° C | 78% | 1012.2 hPa | 0 mm | - | - | - |
| 1777986604 | 19.44° C | 75% | 1012.3 hPa | 0 mm | - | - | - |
| 1777986005 | 19.44° C | 78% | 1012.3 hPa | 0 mm | - | - | - |
| 1777983603 | 18.33° C | 80% | 1012.7 hPa | 0 mm | - | - | - |
| 1777974004 | 17.78° C | 88% | 1013.7 hPa | 0 mm | - | - | - |
| 1777966803 | 16.67° C | 82% | 1013.7 hPa | 0 mm | - | - | - |
| 1777965003 | 17.22° C | 82% | 1013.4 hPa | 0 mm | - | - | - |
| 1777959605 | 16.11° C | 80% | 1013.6 hPa | 0 mm | - | - | - |
| 1777953604 | 16.11° C | 83% | 1013.3 hPa | 0 mm | - | - | - |
| 1777927802 | 14.44° C | 95% | 1015.1 hPa | 0 mm | - | - | - |
| 1777926004 | 15° C | 95% | 1015.3 hPa | 0 mm | - | - | - |
| 1777925408 | 15° C | 95% | 1015.1 hPa | 0 mm | - | - | - |
* Rain latest hour (hover to see other rain measurements)
** Current wind speed in m/s (hover to see current wind gust speed)